{"data":{"norad_id":58941,"intl_designator":"2024-027L","name":"STARLINK-31345","alt_names":[],"object_type":"PAYLOAD","status":"ACTIVE","operator":null,"country":"US","launch_date":"2024-02-10","launch_site_code":"AFWTR","launch_vehicle":null,"mission":null,"orbit_class":"UNKNOWN","rcs_meters":null,"size_class":null,"mass_kg":null,"dimensions":null,"purposes":["comms"],"wikipedia_slug":null,"has_3d_model":false,"image_url":null,"decayed_at":null,"tle_current":{"epoch":"2026-05-24T20:43:46.748064Z","epoch_age_seconds":83924,"freshness":"FRESH","line1":"1 58941U 24027L   26144.86373551  .00000179  00000+0  18166-4 0  9999","line2":"2 58941  53.1614 315.6086 0001191  91.8078 268.3059 15.30190985128996","mean_motion":15.30190985,"eccentricity":0.0001191,"inclination_deg":53.1614,"raan_deg":315.6086,"arg_perigee_deg":91.8078,"mean_anomaly_deg":268.3059,"bstar":1.8166e-5,"rev_number":12899,"period_min":94.105900120696,"perigee_km":474.42574927919,"apogee_km":476.05822415383,"semimajor_km":6853.3789867165,"source":"CELESTRAK","updated_at":"2026-05-25T13:38:18.790255Z"}}}